Monroe, MI

12:28 AM EST on December 14, 2017 (GMT -0500)
Custer

Weather History for KTTF - April, 2013

Change the Weather History Date:

Tuesday, April 9, 2013

  Actual Average Record
Temperature  
Mean Temperature 46 °F -  
Max Temperature 53 °F 53 °F 82 °F (1931)
Min Temperature 39 °F 34 °F 17 °F (1997)
Degree Days  
Heating Degree Days 19    
Moisture  
Dew Point 43 °F    
Average Humidity 86    
Maximum Humidity 100    
Minimum Humidity 72    
Precipitation  
Precipitation 0.00 in - - ()
Sea Level Pressure  
Sea Level Pressure 29.98 in    
Wind  
Wind Speed 5 mph (East)    
Max Wind Speed 12 mph    
Max Gust Speed 16 mph    
Visibility 6 miles    
Events      
Averages and records for this station are not official NWS values.
T = Trace of Precipitation, MM = Missing Value Source: NWS Daily Summary

Daily Weather History Graph

Daily Weather History Graph

Search for Another Location

Airport or City:

Trip Planner

Search our weather history database for the weather conditions in past years. The results will help you decide how hot, cold, wet, or windy it might be!

Date:

Astronomy

Apr. 09, 2013 Rise Set
Actual Time 7:02 AM EDT 8:08 PM EDT
Civil Twilight 6:34 AM EDT 8:37 PM EDT
Nautical Twilight 6:00 AM EDT 9:11 PM EDT
Astronomical Twilight 5:24 AM EDT 9:47 PM EDT
Moon 6:25 AM EDT (4/9) 7:43 PM EDT (4/9)
Length of Visible Light 14h 02m
Length of Day
13h 05m
Waning Crescent, 1% of the Moon is Illuminated
Apr 9
Waning Crescent
Apr 10
New
Apr 18
First Quarter
Apr 25
Full
May 2
Last Quarter

Hourly Weather History & Observations

Time (EDT) Temp. Windchill Dew Point Humidity Pressure Visibility Wind Dir Wind Speed Gust Speed Precip Events Conditions
12:14 AM 48.2 °F - 42.8 °F 82% 29.95 in 10.0 mi NW 10.4 mph - N/A   Scattered Clouds
12:34 AM 46.4 °F 41.9 °F 42.8 °F 87% 29.96 in 10.0 mi WNW 9.2 mph - N/A   Scattered Clouds
12:54 AM 46.4 °F 42.9 °F 42.8 °F 87% 29.97 in 10.0 mi NW 6.9 mph - N/A   Scattered Clouds
1:14 AM 46.4 °F 43.5 °F 42.8 °F 87% 29.99 in 10.0 mi West 5.8 mph - N/A   Clear
1:34 AM 44.6 °F 41.4 °F 42.8 °F 93% 29.99 in 7.0 mi NW 5.8 mph - N/A   Mostly Cloudy
2:14 AM 46.4 °F 44.3 °F 42.8 °F 87% 30.01 in 7.0 mi WNW 4.6 mph - N/A   Overcast
2:34 AM 44.6 °F 43.1 °F 42.8 °F 93% 30.02 in 7.0 mi West 3.5 mph - N/A   Overcast
2:54 AM 44.6 °F - 42.8 °F 93% 30.02 in 7.0 mi Calm Calm - N/A   Mostly Cloudy
3:14 AM 44.6 °F - 42.8 °F 93% 30.02 in 7.0 mi Calm Calm - N/A   Scattered Clouds
3:35 AM 42.8 °F - 42.8 °F 100% 30.02 in 7.0 mi Calm Calm - N/A   Mostly Cloudy
3:55 AM 42.8 °F - 41.0 °F 93% 30.03 in 5.0 mi Calm Calm - N/A   Scattered Clouds
4:15 AM 42.8 °F - 41.0 °F 93% 30.04 in 4.0 mi Calm Calm - N/A   Scattered Clouds
4:35 AM 42.8 °F - 42.8 °F 100% 30.05 in 4.0 mi Calm Calm - N/A   Mostly Cloudy
4:55 AM 42.8 °F - 41.0 °F 93% 30.05 in 4.0 mi Calm Calm - N/A   Mostly Cloudy
5:15 AM 41.0 °F - 41.0 °F 100% 30.04 in 3.0 mi Calm Calm - N/A   Mostly Cloudy
5:35 AM 41.0 °F - 39.2 °F 93% 30.05 in 3.0 mi Calm Calm - N/A   Mostly Cloudy
5:55 AM 41.0 °F - 41.0 °F 100% 30.06 in 4.0 mi Calm Calm - N/A   Scattered Clouds
6:15 AM 39.2 °F - 39.2 °F 100% 30.06 in 2.5 mi Calm Calm - N/A   Clear
6:36 AM 41.0 °F - 39.2 °F 93% 30.07 in 2.0 mi Calm Calm - N/A   Clear
6:56 AM 39.2 °F - 37.4 °F 93% 30.08 in 0.8 mi Calm Calm - N/A   Mist
7:16 AM 39.2 °F - 39.2 °F 100% 30.07 in 1.0 mi Calm Calm - N/A   Mist
7:36 AM 39.2 °F - 39.2 °F 100% 30.07 in 1.0 mi Calm Calm - N/A   Mist
7:56 AM 41.0 °F - 41.0 °F 100% 30.08 in 2.5 mi Calm Calm - N/A   Scattered Clouds
8:16 AM 42.8 °F 38.6 °F 42.8 °F 100% 30.08 in 2.5 mi East 6.9 mph - N/A   Clear
8:36 AM 44.6 °F 40.7 °F 42.8 °F 93% 30.07 in 4.0 mi East 6.9 mph - N/A   Scattered Clouds
8:56 AM 46.4 °F 42.4 °F 42.8 °F 87% 30.08 in 7.0 mi East 8.1 mph - N/A   Scattered Clouds
9:11 AM 46.4 °F 41.5 °F 44.6 °F 93% 30.08 in 7.0 mi East 10.4 mph - N/A   Scattered Clouds
9:31 AM 48.2 °F - 42.8 °F 82% 30.07 in 10.0 mi East 5.8 mph - N/A   Mostly Cloudy
9:52 AM 48.2 °F - 42.8 °F 82% 30.06 in 10.0 mi ESE 11.5 mph - N/A   Scattered Clouds
10:12 AM 48.2 °F - 42.8 °F 82% 30.06 in 10.0 mi ESE 11.5 mph - N/A   Scattered Clouds
10:32 AM 46.4 °F 41.1 °F 42.8 °F 87% 30.06 in 7.0 mi ESE 11.5 mph - N/A   Mostly Cloudy
10:52 AM 46.4 °F 41.9 °F 42.8 °F 87% 30.07 in 5.0 mi East 9.2 mph - N/A   Overcast
11:12 AM 44.6 °F 40.7 °F 42.8 °F 93% 30.07 in 3.0 mi East 6.9 mph - N/A   Overcast
11:32 AM 48.2 °F - 42.8 °F 82% 30.05 in 4.0 mi East 9.2 mph 16.1 mph N/A   Haze
11:52 AM 46.4 °F 41.5 °F 42.8 °F 87% 30.05 in 4.0 mi East 10.4 mph - N/A   Overcast
12:12 PM 46.4 °F 42.4 °F 42.8 °F 87% 30.05 in 4.0 mi East 8.1 mph - N/A   Overcast
12:32 PM 46.4 °F 42.9 °F 42.8 °F 87% 30.03 in 4.0 mi ENE 6.9 mph - N/A   Overcast
12:52 PM 46.4 °F 42.4 °F 42.8 °F 87% 30.01 in 4.0 mi East 8.1 mph - N/A   Overcast
1:13 PM 46.4 °F 41.5 °F 42.8 °F 87% 29.99 in 4.0 mi East 10.4 mph 16.1 mph N/A   Overcast
1:33 PM 46.4 °F 41.5 °F 42.8 °F 87% 29.98 in 5.0 mi East 10.4 mph - N/A   Haze
1:53 PM 50.0 °F - 44.6 °F 82% 29.96 in 5.0 mi East 11.5 mph - N/A   Haze
2:13 PM 51.8 °F - 44.6 °F 76% 29.97 in 5.0 mi ESE 10.4 mph - N/A   Haze
2:33 PM 51.8 °F - 44.6 °F 76% 29.95 in 5.0 mi ESE 10.4 mph - N/A   Haze
2:53 PM 53.6 °F - 44.6 °F 72% 29.93 in 5.0 mi East 11.5 mph - N/A   Haze
3:13 PM 53.6 °F - 44.6 °F 72% 29.91 in 5.0 mi East 9.2 mph - N/A   Haze
3:33 PM 53.6 °F - 44.6 °F 72% 29.91 in 5.0 mi ESE 8.1 mph - N/A   Haze
3:53 PM 53.6 °F - 46.4 °F 77% 29.90 in 5.0 mi ESE 6.9 mph - N/A   Haze
4:14 PM 53.6 °F - 44.6 °F 72% 29.89 in 7.0 mi ESE 5.8 mph - N/A   Scattered Clouds
4:34 PM 51.8 °F - 44.6 °F 76% 29.88 in 5.0 mi ESE 5.8 mph - N/A   Haze
4:54 PM 51.8 °F - 44.6 °F 76% 29.88 in 5.0 mi Calm Calm - N/A   Haze
5:14 PM 53.6 °F - 44.6 °F 72% 29.87 in 5.0 mi ESE 6.9 mph - N/A   Haze
5:34 PM 53.6 °F - 44.6 °F 72% 29.87 in 7.0 mi ESE 5.8 mph - N/A   Scattered Clouds
5:54 PM 51.8 °F - 44.6 °F 76% 29.87 in 7.0 mi East 5.8 mph - N/A   Scattered Clouds
6:14 PM 50.0 °F - 42.8 °F 76% 29.87 in 7.0 mi SE 6.9 mph - N/A   Mostly Cloudy
6:34 PM 50.0 °F - 42.8 °F 76% 29.88 in 7.0 mi Calm Calm - N/A   Overcast
6:54 PM 50.0 °F - 44.6 °F 82% 29.88 in 7.0 mi Calm Calm - N/A   Overcast
7:14 PM 51.8 °F - 44.6 °F 76% 29.89 in 7.0 mi Calm Calm - N/A   Overcast
7:35 PM 50.0 °F - 44.6 °F 82% 29.88 in 7.0 mi Calm Calm - N/A   Overcast
7:55 PM 51.8 °F - 46.4 °F 82% 29.88 in 7.0 mi ENE 4.6 mph - N/A   Overcast
8:15 PM 51.8 °F - 46.4 °F 82% 29.89 in 7.0 mi ENE 5.8 mph - N/A   Mostly Cloudy
8:35 PM 51.8 °F - 46.4 °F 82% 29.88 in 10.0 mi NE 6.9 mph - N/A   Mostly Cloudy
8:55 PM 50.0 °F - 44.6 °F 82% 29.88 in 10.0 mi ENE 3.5 mph - N/A   Mostly Cloudy
9:15 PM 50.0 °F - 44.6 °F 82% 29.90 in 10.0 mi East 4.6 mph - N/A   Mostly Cloudy
9:35 PM 50.0 °F - 44.6 °F 82% 29.90 in 10.0 mi East 3.5 mph - N/A   Scattered Clouds
9:55 PM 50.0 °F - 46.4 °F 87% 29.93 in 10.0 mi Calm Calm - N/A   Scattered Clouds
10:15 PM 48.2 °F - 46.4 °F 93% 29.93 in 10.0 mi NNE 4.6 mph - N/A   Scattered Clouds
10:56 PM 48.2 °F - 46.4 °F 93% 29.95 in 7.0 mi Calm Calm - N/A   Mostly Cloudy
11:16 PM 50.0 °F - 46.4 °F 87% 29.95 in 7.0 mi Calm Calm - N/A   Overcast
11:36 PM 50.0 °F - 46.4 °F 87% 29.94 in 5.0 mi NNE 4.6 mph - N/A   Overcast
11:56 PM 50.0 °F - 46.4 °F 87% 29.94 in 7.0 mi NE 3.5 mph - N/A   Overcast